GW1065 Weather Reports


time (UTC)temp
F
wind
direction
speed
knots
gust
knots
rain 1hr
in
rain 24hr
in
rain mn
in
humidity
%
barometer
mb
20260507180047 65 360 2.6 13.0 0.00 0.00 0.00 49 1014.1
20260507174547 65 360 3.5 8.7 0.00 0.00 0.00 50 1014.2
20260507173050 64 360 0.9 9.6 0.00 0.00 0.00 50 1014.3
20260507171558 64 360 0.9 8.7 0.00 0.00 0.00 52 1014.5
20260507170047 63 360 4.3 12.2 0.00 0.00 0.00 51 1014.9
20260507164542 63 360 1.7 10.4 0.00 0.00 0.00 53 1015.1
20260507163043 62 360 3.5 8.7 0.00 0.00 0.00 52 1015.2
20260507161547 62 360 3.5 10.4 0.00 0.00 0.00 52 1015.4
20260507160046 62 360 2.6 11.3 0.00 0.00 0.00 53 1015.4
20260507154550 61 360 3.5 11.3 0.00 0.00 0.00 53 1015.5
20260507153048 61 360 1.7 9.6 0.00 0.00 0.00 56 1015.6
20260507151544 60 360 1.7 7.8 0.00 0.00 0.00 58 1015.7
20260507150047 59 360 1.7 7.0 0.00 0.00 0.00 59 1015.8
20260507144611 58 360 1.7 7.0 0.00 0.00 0.00 60 1016.0
20260507143048 57 360 1.7 7.0 0.00 0.00 0.00 62 1015.9
20260507141610 56 360 2.6 8.7 0.00 0.00 0.00 62 1016.0
20260507140053 55 360 1.7 7.0 0.00 0.00 0.00 65 1016.0
20260507134549 54 360 0.9 7.0 0.00 0.00 0.00 69 1016.1
20260507133047 52 360 0.0 4.3 0.00 0.00 0.00 74 1016.0
20260507131548 50 0 0.0 3.5 0.00 0.00 0.00 79 1016.2
20260507130046 48 0 0.0 1.7 0.00 0.00 0.00 83 1016.5
20260507124553 45 0 0.0 1.7 0.00 0.00 0.00 86 1016.6
20260507123051 42 0 0.0 0.9 0.00 0.00 0.00 87 1016.5
20260507121552 40 0 0.0 0.0 0.00 0.00 0.00 86 1016.6
20260507120055 39 0 0.0 0.0 0.00 0.00 0.00 86 1016.3
20260507114558 39 0 0.0 0.0 0.00 0.00 0.00 85 1016.3
20260507113053 39 0 0.0 0.0 0.00 0.00 0.00 84 1016.3
20260507111552 39 0 0.0 0.0 0.00 0.00 0.00 84 1016.2
20260507110054 39 0 0.0 0.0 0.00 0.00 0.00 84 1016.2
20260507104556 40 0 0.0 0.0 0.00 0.00 0.00 84 1016.2
20260507103047 40 0 0.0 0.0 0.00 0.00 0.00 83 1016.2
20260507101550 40 0 0.0 0.0 0.00 0.00 0.00 83 1016.2
20260507100049 40 0 0.0 0.0 0.00 0.00 0.00 82 1016.2
20260507094550 40 0 0.0 0.0 0.00 0.00 0.00 82 1016.5
20260507093057 41 0 0.0 0.0 0.00 0.00 0.00 81 1016.5
20260507091548 41 0 0.0 0.0 0.00 0.00 0.00 81 1016.5
20260507090048 41 0 0.0 0.0 0.00 0.00 0.00 80 1016.5
20260507084551 41 0 0.0 0.0 0.00 0.00 0.00 79 1016.6
20260507083050 42 0 0.0 0.0 0.00 0.00 0.00 79 1016.7
20260507081548 42 0 0.0 0.0 0.00 0.00 0.00 79 1016.7
20260507080048 43 0 0.0 0.0 0.00 0.00 0.00 77 1016.6
20260507074549 43 0 0.0 0.0 0.00 0.00 0.00 77 1016.6
20260507073055 44 0 0.0 0.0 0.00 0.00 0.00 76 1016.8
20260507071552 44 0 0.0 0.0 0.00 0.00 0.00 75 1017.0
20260507070057 45 0 0.0 0.0 0.00 0.00 0.00 75 1017.1
20260507064551 46 0 0.0 0.0 0.00 0.00 0.00 74 1017.3
20260507063051 46 0 0.0 0.0 0.00 0.00 0.00 74 1017.3
20260507061544 46 0 0.0 0.0 0.00 0.00 0.00 74 1017.3
20260507060057 46 0 0.0 0.0 0.00 0.00 0.00 72 1017.4
20260507054551 46 0 0.0 0.0 0.00 0.02 0.00 71 1017.4
20260507053055 46 0 0.0 0.0 0.00 0.02 0.00 71 1017.4
20260507051545 46 0 0.0 0.0 0.00 0.02 0.00 70 1017.4
20260507050050 46 0 0.0 0.0 0.00 0.02 0.00 69 1017.4
20260507044558 46 0 0.0 0.0 0.00 0.02 0.02 68 1017.5
20260507043048 46 0 0.0 0.0 0.00 0.02 0.02 66 1017.4
20260507041550 46 0 0.0 0.0 0.00 0.02 0.02 64 1017.7
20260507040049 47 0 0.0 0.0 0.00 0.02 0.02 62 1017.6
20260507034551 47 0 0.0 0.0 0.00 0.02 0.02 60 1017.8
20260507033044 48 0 0.0 0.0 0.00 0.02 0.02 58 1017.5
20260507031543 49 0 0.0 0.0 0.00 0.02 0.02 57 1017.7
20260507030055 49 0 0.0 0.0 0.00 0.02 0.02 55 1017.6
20260507024556 50 0 0.0 0.0 0.00 0.02 0.02 53 1017.4
20260507023054 52 0 0.0 0.0 0.00 0.02 0.02 51 1017.4
20260507021556 53 0 0.0 0.0 0.00 0.02 0.02 49 1017.3
20260507020105 55 0 0.0 0.0 0.00 0.02 0.02 45 1017.2
20260507014554 57 0 0.0 0.0 0.00 0.02 0.02 42 1017.1
20260507013059 59 0 0.0 0.0 0.00 0.02 0.02 39 1017.1
20260507011559 60 0 0.0 0.0 0.00 0.02 0.02 34 1016.9
20260507010052 61 0 0.0 0.9 0.00 0.02 0.02 31 1016.9
20260507004549 62 0 0.0 1.7 0.00 0.02 0.02 30 1016.9
20260507003049 63 0 0.0 1.7 0.00 0.02 0.02 30 1016.8
20260507001544 64 0 0.0 2.6 0.00 0.02 0.02 29 1016.9
20260507000053 64 0 0.0 1.7 0.00 0.02 0.02 30 1016.8
20260506234554 64 0 0.0 3.5 0.00 0.02 0.02 28 1016.9
20260506233052 65 0 0.0 3.5 0.00 0.02 0.02 29 1016.8
20260506231551 65 340 0.0 1.7 0.00 0.02 0.02 29 1016.8
20260506230047 65 0 0.0 2.6 0.00 0.02 0.02 31 1016.7
20260506224603 63 0 0.0 1.7 0.00 0.02 0.02 33 1016.9
20260506223050 63 0 0.0 2.6 0.00 0.02 0.02 31 1017.0
20260506221555 62 0 0.0 3.5 0.00 0.02 0.02 31 1017.0
20260506220052 62 249 0.0 5.2 0.00 0.02 0.02 33 1017.0
20260506214601 61 0 1.7 6.1 0.00 0.02 0.02 31 1017.1
20260506213053 62 0 0.0 5.2 0.00 0.02 0.02 34 1017.2
20260506211552 62 0 0.0 2.6 0.00 0.02 0.02 33 1017.4
20260506210053 62 0 0.9 6.1 0.00 0.02 0.02 32 1017.7
20260506204610 62 9 0.0 2.6 0.00 0.02 0.02 33 1017.9
20260506203055 62 31 0.0 1.7 0.00 0.02 0.02 37 1017.9
20260506201553 61 0 0.0 2.6 0.00 0.02 0.02 39 1018.0
20260506200049 61 0 0.0 1.7 0.00 0.02 0.02 35 1018.1
20260506194603 60 360 0.0 3.5 0.00 0.02 0.02 34 1018.2
20260506193049 59 0 0.0 4.3 0.00 0.02 0.02 35 1018.3
20260506191546 59 0 0.0 5.2 0.00 0.02 0.02 34 1018.4
20260506190050 59 0 0.0 1.7 0.00 0.02 0.02 37 1018.5
20260506184550 59 360 0.0 3.5 0.00 0.03 0.02 31 1018.7
20260506183046 59 0 0.0 2.6 0.00 0.03 0.02 34 1019.0
20260506181549 58 0 0.0 4.3 0.00 0.03 0.02 35 1019.2